Weather History for KSKF - January, 2013

Change the Weather History Date:

Tuesday, January 22, 2013

  Actual Average Record
Temperature  
Mean Temperature 60 °F -  
Max Temperature 72 °F 63 °F 79 °F (2009)
Min Temperature 49 °F 42 °F 27 °F (2011)
Degree Days  
Heating Degree Days 4    
Growing Degree Days 10 (Base 50)    
Moisture  
Dew Point 47 °F    
Average Humidity 66    
Maximum Humidity 84    
Minimum Humidity 42    
Precipitation  
Precipitation 0.00 in - - ()
Sea Level Pressure  
Sea Level Pressure 30.23 in    
Wind  
Wind Speed 5 mph (SE)    
Max Wind Speed 13 mph    
Max Gust Speed -    
Visibility 10 miles    
Events Rain    
Averages and records for this station are not official NWS values.
T = Trace of Precipitation, MM = Missing Value Source: NWS Daily Summary

Daily Weather History Graph

Daily Weather History Graph

Search for Another Location

Airport or City:

Trip Planner

Search our weather history database for the weather conditions in past years. The results will help you decide how hot, cold, wet, or windy it might be!

Date:

Astronomy

Jan. 22, 2013 Rise Set
Actual Time 7:28 AM CST 6:04 PM CST
Civil Twilight 7:02 AM CST 6:29 PM CST
Nautical Twilight 6:33 AM CST 6:58 PM CST
Astronomical Twilight 6:05 AM CST 7:26 PM CST
Moon 2:31 PM CST (1/22) 3:48 AM CST (1/22)
Length of Visible Light 11h 27m
Length of Day
10h 36m
Waxing Gibbous, 83% of the Moon is Illuminated
Jan 22
Waxing Gibbous
Jan 26
Full
Feb 3
Last Quarter
Feb 10
New
Feb 17
First Quarter

Hourly Weather History & Observations

Time (CST) Temp. Dew Point Humidity Pressure Visibility Wind Dir Wind Speed Gust Speed Precip Events Conditions
12:55 AM 51.4 °F 45.5 °F 80% 30.19 in 10.0 mi Calm Calm - N/A   Clear
1:55 AM 49.3 °F 44.4 °F 83% 30.20 in 10.0 mi NNE 4.6 mph - N/A   Clear
2:44 AM 50.0 °F 44.6 °F 82% 30.20 in 10.0 mi North 3.5 mph - N/A   Mostly Cloudy
2:55 AM 49.3 °F 44.2 °F 83% 30.20 in 10.0 mi North 3.5 mph - N/A   Mostly Cloudy
3:55 AM 50.9 °F 45.0 °F 80% 30.20 in 10.0 mi NE 6.9 mph - N/A   Overcast
4:55 AM 50.9 °F 44.4 °F 78% 30.22 in 10.0 mi North 4.6 mph - N/A   Overcast
5:55 AM 51.8 °F 44.6 °F 76% 30.24 in 10.0 mi NNE 4.6 mph - N/A   Overcast
6:55 AM 52.3 °F 44.1 °F 73% 30.26 in 10.0 mi NNE 6.9 mph - N/A   Overcast
6:59 AM 51.8 °F 44.6 °F 76% 30.27 in 10.0 mi NNE 6.9 mph - N/A   Overcast
7:55 AM 52.5 °F 44.4 °F 74% 30.27 in 10.0 mi Calm Calm - N/A   Overcast
8:51 AM 55.4 °F 44.6 °F 67% 30.27 in 10.0 mi Calm Calm - N/A   Scattered Clouds
8:55 AM 55.0 °F 44.8 °F 68% 30.27 in 10.0 mi Calm Calm - N/A   Scattered Clouds
9:55 AM 58.6 °F 46.0 °F 63% 30.29 in 10.0 mi East 5.8 mph - N/A   Clear
10:55 AM 61.2 °F 48.6 °F 63% 30.30 in 10.0 mi ESE 3.5 mph - N/A   Clear
11:10 AM 62.6 °F 48.2 °F 59% 30.30 in 10.0 mi ESE 4.6 mph - N/A   Mostly Cloudy
11:30 AM 64.4 °F 50.0 °F 59% 30.29 in 10.0 mi Variable 3.5 mph - N/A   Mostly Cloudy
11:55 AM 66.2 °F 50.5 °F 57% 30.28 in 10.0 mi SE 8.1 mph - N/A   Partly Cloudy
12:55 PM 68.9 °F 50.0 °F 51% 30.24 in 10.0 mi SSE 12.7 mph - N/A   Clear
1:55 PM 70.7 °F 48.2 °F 45% 30.21 in 10.0 mi South 8.1 mph - N/A   Clear
2:55 PM 72.0 °F 48.6 °F 43% 30.19 in 10.0 mi Variable 6.9 mph - N/A   Clear
3:55 PM 72.5 °F 47.8 °F 42% 30.18 in 10.0 mi SSE 8.1 mph - N/A   Clear
4:55 PM 71.8 °F 48.4 °F 43% 30.19 in 8.0 mi South 8.1 mph - N/A   Clear
5:55 PM 68.2 °F 46.9 °F 47% 30.19 in 8.0 mi South 5.8 mph - N/A   Clear
6:55 PM 60.6 °F 45.9 °F 58% 30.20 in 10.0 mi SSE 6.9 mph - N/A   Clear
7:04 PM 60.8 °F 46.4 °F 59% 30.20 in 10.0 mi South 6.9 mph - N/A Rain Light Rain
7:12 PM 59.0 °F 46.4 °F 63% 30.20 in 10.0 mi South 6.9 mph - N/A   Clear
7:55 PM 57.9 °F 45.7 °F 64% 30.20 in 10.0 mi South 8.1 mph - 0.00 in   Clear
8:55 PM 56.5 °F 46.4 °F 69% 30.22 in 10.0 mi SSE 9.2 mph - N/A   Clear
9:55 PM 56.5 °F 48.4 °F 74% 30.23 in 10.0 mi SSE 10.4 mph - N/A   Clear
10:55 PM 54.3 °F 48.7 °F 81% 30.25 in 10.0 mi SSE 6.9 mph - N/A   Clear
11:55 PM 52.9 °F 48.2 °F 84% 30.26 in 10.0 mi South 4.6 mph - N/A   Clear